CZ-4 DEB, 28070

Orbit data source: Space-Track

CZ-4 DEB, 28070 is space debris in SSO originally from a launch on Thu, 14 Oct 1999 UTC launched from the Taiyaun Space Center, China (TSC). Debris objects in space refer to the collection of defunct objects orbiting the Earth. Examples of debris include non-operational satellites, rocket bodies, and fragments generated from explosions, collisions, or faulty payload assembly.

Loading next visibility...
Identifier
28070, 1999-057NA
Orbit
SSO
Country
Flag of CNCN / PRC
Related business
Manufacturer
Unknown
Mission
Spacecraft
Bus & Motor
Unknown
Mass
Unknown
Launch date (UTC)
1999-10-14 (26 years ago)
Launch vehicle
Unknown
Launch site
Taiyaun Space Center, China (TSC)
Object type
Payload
Rocket body
Debris
Shape & HBR
Unknown shape, 0.1 m
Radar Cross Section
Small (<0.1 m²)

Expand to show TLE details & history
Last TLE update: 1 day ago

TLE from 1 day ago
0 CZ-4 DEB
1 28070U 99057NA  25291.08750737  .00003470  00000-0  72937-3 0  9998
2 28070  98.4728 339.9775 0060251 326.5482  33.1917 14.59122975219645
Epoch: 2025-10-18T02:06Z
TLE epoch observation values (Epoch: 2025-10-18T02:06:00.636Z)
Latitude
-0.00001°
Longitude
-78.3487°
Altitude
663.385 km
Speed
7.544 km/s
True Right ascension
22h 39m 54s
True Declination
0° 00' 00"
Sunlit
Object was in full shadow at epoch
Visualization orbit readout
Latitude
Unknown
Longitude
Unknown
Altitude
Unknown
Speed
Unknown
Apparent Right ascension
Unknown
Apparent Declination
Unknown
Sunlit
N/A
Visualization observer readout
Local Sidereal Time
01:16:36
Azimuth
Unknown
Elevation
Unknown
Doppler factor
Unknown
Orbital elements
Apogee altitude
735.707 km
Perigee altitude
650.497 km
Semi-major axis
7,071.239 km
Eccentricity
0.00603
Inclination
98.4728°
RAAN
339.9775°
Arg. of periapsis
326.5482°
True anomaly
33.57206°
Mean anomaly
33.1917°
Eccentric anomaly
33.38164°
Mean motion
3.65006 °/min
Orbital period
98.63 mins
BSTAR
0.00072937
Loading maneuver chart data...
Computing Atmospheric mass density...

Documentation

Showing up to 5 results
|